DAL1208 KSYR-KDTW

Flight info

Callsign DAL1208
Flight time N/A
Altitude 34000
Route SYR DINES DONEO TPGUN2
Aircraft A320/M-SDE3FGHIRWY/LB1

Departure

Time 2026-04-26 16:39
Airport Syracuse Hancock International Airport (KSYR)

Arrival

Time N/A
Airport Detroit Metropolitan Wayne County Airport (KDTW)
Time Latitude Longitude Altitude Speed Heading
2026-04-26 16:17 43.11507 -76.10928 424 ft 0 kts 272°
2026-04-26 16:19 43.11507 -76.10927 424 ft 0 kts 272°
2026-04-26 16:30 43.11506 -76.10904 414 ft 2 kts 272°
2026-04-26 16:30 43.11508 -76.10873 414 ft 4 kts 238°
2026-04-26 16:30 43.11526 -76.10855 418 ft 4 kts 181°
2026-04-26 16:31 43.11535 -76.10855 413 ft 0 kts 174°
2026-04-26 16:32 43.11532 -76.10855 420 ft 4 kts 174°
2026-04-26 16:32 43.11452 -76.10848 423 ft 16 kts 177°
2026-04-26 16:33 43.11405 -76.10836 417 ft 3 kts 136°
2026-04-26 16:33 43.11403 -76.10803 419 ft 0 kts 91°
2026-04-26 16:34 43.11401 -76.10770 422 ft 9 kts 99°
2026-04-26 16:34 43.11350 -76.10737 418 ft 13 kts 177°
2026-04-26 16:34 43.11241 -76.10731 418 ft 17 kts 177°
2026-04-26 16:34 43.11119 -76.10723 420 ft 18 kts 177°
2026-04-26 16:35 43.11018 -76.10732 420 ft 11 kts 216°
2026-04-26 16:35 43.11002 -76.10842 416 ft 15 kts 268°
2026-04-26 16:35 43.10997 -76.10987 425 ft 16 kts 267°
2026-04-26 16:35 43.10992 -76.11165 425 ft 22 kts 268°
2026-04-26 16:36 43.10984 -76.11411 419 ft 29 kts 267°
2026-04-26 16:36 43.10978 -76.11590 424 ft 18 kts 268°
2026-04-26 16:36 43.10972 -76.11770 415 ft 20 kts 267°
2026-04-26 16:36 43.10966 -76.11965 424 ft 21 kts 267°
2026-04-26 16:37 43.10958 -76.12173 424 ft 22 kts 267°
2026-04-26 16:37 43.10952 -76.12392 424 ft 24 kts 267°
2026-04-26 16:37 43.10946 -76.12576 421 ft 10 kts 268°
2026-04-26 16:37 43.10903 -76.12634 417 ft 9 kts 183°
2026-04-26 16:38 43.10832 -76.12585 421 ft 12 kts 135°
2026-04-26 16:38 43.10824 -76.12483 425 ft 11 kts 87°
2026-04-26 16:38 43.10833 -76.12223 424 ft 61 kts 88°
2026-04-26 16:38 43.10866 -76.11320 427 ft 126 kts 86°
2026-04-26 16:39 43.10908 -76.09869 457 ft 173 kts 88°
2026-04-26 16:39 43.10962 -76.08302 1241 ft 162 kts 77°
2026-04-26 16:39 43.11597 -76.07115 1928 ft 158 kts 21°
2026-04-26 16:39 43.12703 -76.07047 2412 ft 173 kts 342°
2026-04-26 16:40 43.13710 -76.08084 2760 ft 197 kts 302°
2026-04-26 16:40 43.14207 -76.09961 3024 ft 224 kts 287°
2026-04-26 16:40 43.14613 -76.12148 3429 ft 249 kts 285°
2026-04-26 16:40 43.15032 -76.14551 4019 ft 266 kts 284°
2026-04-26 16:41 43.15465 -76.17041 4940 ft 271 kts 284°
2026-04-26 16:41 43.15910 -76.19569 5831 ft 275 kts 285°
2026-04-26 16:41 43.16359 -76.22125 6768 ft 277 kts 285°
2026-04-26 16:41 43.16796 -76.24710 7667 ft 280 kts 285°
2026-04-26 16:42 43.17229 -76.27320 8559 ft 282 kts 285°
2026-04-26 16:42 43.17664 -76.29947 9449 ft 284 kts 286°
2026-04-26 16:42 43.18105 -76.32597 10288 ft 288 kts 287°
2026-04-26 16:42 43.18574 -76.35376 10561 ft 311 kts 287°
2026-04-26 16:43 43.19084 -76.38374 10760 ft 335 kts 286°
2026-04-26 16:43 43.19628 -76.41592 10896 ft 358 kts 286°
2026-04-26 16:43 43.20199 -76.44996 11275 ft 371 kts 286°
2026-04-26 16:43 43.20771 -76.48460 11914 ft 375 kts 286°
2026-04-26 16:44 43.21348 -76.51963 12582 ft 378 kts 286°
2026-04-26 16:44 43.21932 -76.55501 13248 ft 381 kts 286°
2026-04-26 16:44 43.22518 -76.59055 13918 ft 384 kts 286°
2026-04-26 16:44 43.23108 -76.62635 14532 ft 387 kts 287°
2026-04-26 16:45 43.23704 -76.66246 15172 ft 388 kts 287°
2026-04-26 16:45 43.24300 -76.69866 15813 ft 390 kts 287°
2026-04-26 16:45 43.24894 -76.73498 16445 ft 391 kts 287°
2026-04-26 16:45 43.25488 -76.77143 17062 ft 393 kts 287°
2026-04-26 16:46 43.26082 -76.80805 17676 ft 394 kts 287°
2026-04-26 16:46 43.26671 -76.84441 18260 ft 396 kts 287°
2026-04-26 16:46 43.27278 -76.88187 18819 ft 397 kts 287°
2026-04-26 16:46 43.27869 -76.91837 19305 ft 398 kts 287°
2026-04-26 16:47 43.28471 -76.95559 19764 ft 400 kts 287°
2026-04-26 16:47 43.29075 -76.99297 20203 ft 402 kts 287°
2026-04-26 16:47 43.29682 -77.03056 20626 ft 404 kts 287°
2026-04-26 16:47 43.30294 -77.06835 21036 ft 406 kts 287°
2026-04-26 16:48 43.30697 -77.10702 21424 ft 414 kts 278°
2026-04-26 16:48 43.30607 -77.14682 21804 ft 423 kts 268°
2026-04-26 16:48 43.30017 -77.18674 22154 ft 430 kts 261°
2026-04-26 16:48 43.29249 -77.22660 22514 ft 432 kts 261°
2026-04-26 16:49 43.28485 -77.26648 22883 ft 434 kts 261°
2026-04-26 16:49 43.27719 -77.30662 23252 ft 435 kts 261°
2026-04-26 16:49 43.26950 -77.34688 23610 ft 437 kts 261°
2026-04-26 16:49 43.26178 -77.38735 23929 ft 439 kts 261°
2026-04-26 16:50 43.25401 -77.42792 24216 ft 441 kts 261°
2026-04-26 16:50 43.24618 -77.46865 24492 ft 443 kts 261°
2026-04-26 16:50 43.23830 -77.50955 24768 ft 444 kts 261°
2026-04-26 16:50 43.23037 -77.55062 25031 ft 446 kts 261°
2026-04-26 16:51 43.22240 -77.59174 25287 ft 447 kts 260°
2026-04-26 16:51 43.21436 -77.63299 25528 ft 449 kts 260°
2026-04-26 16:51 43.20625 -77.67436 25767 ft 450 kts 260°
2026-04-26 16:51 43.19810 -77.71588 25998 ft 451 kts 260°
2026-04-26 16:52 43.18994 -77.75747 26217 ft 453 kts 260°
2026-04-26 16:52 43.18453 -77.78505 26386 ft 453 kts 260°
2026-04-26 16:52 43.17358 -77.84077 26775 ft 452 kts 260°
2026-04-26 16:52 43.16542 -77.88221 27076 ft 451 kts 260°
2026-04-26 16:53 43.15723 -77.92370 27383 ft 451 kts 259°
2026-04-26 16:53 43.14906 -77.96510 27681 ft 450 kts 259°
2026-04-26 16:53 43.14092 -78.00645 28003 ft 449 kts 259°
2026-04-26 16:53 43.13277 -78.04765 28324 ft 448 kts 259°
2026-04-26 16:54 43.12458 -78.08882 28655 ft 448 kts 259°
2026-04-26 16:54 43.11639 -78.12992 28979 ft 447 kts 259°
2026-04-26 16:54 43.10818 -78.17086 29306 ft 446 kts 259°
2026-04-26 16:54 43.09994 -78.21180 29637 ft 446 kts 259°
2026-04-26 16:55 43.09173 -78.25268 29959 ft 445 kts 259°
2026-04-26 16:55 43.08357 -78.29344 30288 ft 445 kts 259°
2026-04-26 16:55 43.07551 -78.33371 30579 ft 444 kts 259°
2026-04-26 16:55 43.06733 -78.37439 30875 ft 443 kts 259°
2026-04-26 16:56 43.05100 -78.45522 31481 ft 440 kts 259°
2026-04-26 16:56 43.04284 -78.49542 31771 ft 439 kts 259°
2026-04-26 16:56 43.03463 -78.53560 32071 ft 438 kts 259°
2026-04-26 16:57 43.02643 -78.57560 32379 ft 436 kts 259°
2026-04-26 16:57 43.01827 -78.61545 32694 ft 435 kts 259°
2026-04-26 16:57 43.00206 -78.69472 33287 ft 432 kts 258°
2026-04-26 16:58 42.99400 -78.73401 33581 ft 431 kts 258°
2026-04-26 16:58 42.98853 -78.76061 33784 ft 430 kts 258°
2026-04-26 16:58 42.96968 -78.85187 34249 ft 431 kts 258°
2026-04-26 16:59 42.96148 -78.89131 34254 ft 433 kts 258°
2026-04-26 17:00 42.92853 -79.04983 34252 ft 434 kts 258°
2026-04-26 17:00 42.90370 -79.16855 34251 ft 434 kts 258°
2026-04-26 17:01 42.88710 -79.24778 34248 ft 434 kts 258°
2026-04-26 17:01 42.87033 -79.32698 34253 ft 435 kts 258°
2026-04-26 17:02 42.85352 -79.40608 34251 ft 435 kts 258°
2026-04-26 17:02 42.83666 -79.48520 34243 ft 435 kts 257°
2026-04-26 17:03 42.81977 -79.56423 34244 ft 435 kts 257°
2026-04-26 17:03 42.80292 -79.64277 34248 ft 435 kts 257°
2026-04-26 17:04 42.78623 -79.72230 34247 ft 433 kts 261°
2026-04-26 17:04 42.77844 -79.80311 34227 ft 430 kts 266°
2026-04-26 17:05 42.77175 -79.88400 34222 ft 430 kts 266°
2026-04-26 17:05 42.76493 -79.96442 34227 ft 431 kts 266°
2026-04-26 17:06 42.75803 -80.04534 34234 ft 431 kts 266°
2026-04-26 17:06 42.75111 -80.12635 34235 ft 431 kts 266°
2026-04-26 17:07 42.74410 -80.20740 34220 ft 431 kts 266°
2026-04-26 17:07 42.73704 -80.28833 34226 ft 431 kts 265°
2026-04-26 17:08 42.72989 -80.36939 34225 ft 431 kts 266°
2026-04-26 17:08 42.72502 -80.45056 34229 ft 430 kts 269°
2026-04-26 17:09 42.72315 -80.50485 34226 ft 430 kts 270°
2026-04-26 17:09 42.71999 -80.59987 34217 ft 430 kts 269°
2026-04-26 17:10 42.71662 -80.68113 34219 ft 431 kts 268°
2026-04-26 17:10 42.71282 -80.76247 34222 ft 431 kts 268°
2026-04-26 17:11 42.70899 -80.84376 34224 ft 431 kts 268°
2026-04-26 17:11 42.70522 -80.92447 34218 ft 431 kts 268°
2026-04-26 17:12 42.69951 -81.04646 33588 ft 432 kts 268°
2026-04-26 17:13 42.69553 -81.12908 31371 ft 440 kts 268°
2026-04-26 17:13 42.69349 -81.17062 30433 ft 441 kts 268°
2026-04-26 17:13 42.68938 -81.25426 28382 ft 440 kts 268°
2026-04-26 17:14 42.68736 -81.29489 28211 ft 423 kts 268°
2026-04-26 17:14 42.68317 -81.37227 27690 ft 402 kts 266°
2026-04-26 17:14 42.68032 -81.40985 27418 ft 399 kts 265°
2026-04-26 17:15 42.67361 -81.48429 26311 ft 394 kts 265°
2026-04-26 17:15 42.67020 -81.52101 25740 ft 391 kts 265°
2026-04-26 17:15 42.66688 -81.55754 25179 ft 388 kts 265°
2026-04-26 17:16 42.66364 -81.59392 24618 ft 386 kts 265°
2026-04-26 17:16 42.66050 -81.63000 24064 ft 384 kts 265°
2026-04-26 17:16 42.65742 -81.66593 23560 ft 380 kts 264°
2026-04-26 17:16 42.65437 -81.70164 22971 ft 378 kts 264°
2026-04-26 17:17 42.65132 -81.73698 22384 ft 377 kts 264°
2026-04-26 17:17 42.64825 -81.77204 21966 ft 371 kts 264°
2026-04-26 17:17 42.64519 -81.80694 21404 ft 370 kts 264°
2026-04-26 17:17 42.64216 -81.84138 20983 ft 365 kts 264°
2026-04-26 17:18 42.63915 -81.87552 20465 ft 363 kts 264°
2026-04-26 17:18 42.63614 -81.90951 19995 ft 361 kts 264°
2026-04-26 17:18 42.63314 -81.94325 19526 ft 358 kts 264°